OETBLGSA

Guest
Details From OETB - TABUK
To LGSA - Khania Souda
Flight Number -
Tags decoded
Created
Modified
Stats Distance 796 nm / 1,474 km
Max Altitude 0 ft / 0 m
Waypoints 8
Social Downloads 0
Likes 0
Share VATSIM

Download

Looking for another format? Having issues loading an existing format? Contact us
Advertisement - Login to hide

Notes

Requested: OETB W334 NAGIP N697 KITOT UN697 MENLI UL677 CVO A727 NOZ UL617 TANSA UL613 VEGES UJ65 LGSA Unmatched points: W334 N697 UN697 UL677 A727 NOZ UL617 UL613 UJ65

Route

OETB NAGIP KITOT MENLI CVO TANSA VEGES LGSA

ID Type Via Altitude Latitude Longitude Leg Dist Tot Dist Heading (true) Name
O OETB APT - 0 ft / 0 m 28.37368˚ 36.62046˚ - 0 nm - TABUK
NAGIP FIX - 0 ft / 0 m 28.70111˚ 36.14833˚ 31 nm 31 nm 308° / 308° -
KITOT FIX - 0 ft / 0 m 29.03472˚ 34.84722˚ 71 nm 103 nm 287° / 286° -
MENLI FIX - 0 ft / 0 m 29.78361˚ 31.86833˚ 162 nm 265 nm 287° / 285° -
CVO VOR - 0 ft / 0 m 30.09231˚ 31.38842˚ 31 nm 296 nm 307° / 306° CAIRO VOR-DME
TANSA FIX - 0 ft / 0 m 34.00000˚ 26.81667˚ 330 nm 626 nm 316° / 314° -
VEGES FIX - 0 ft / 0 m 35.20889˚ 25.67556˚ 91 nm 718 nm 322° / 322° -
O LGSA APT - 0 ft / 0 m 35.53159˚ 24.15118˚ 77 nm 795 nm 285° / 284° Khania Souda

Altitude Profile

Advertisement - Login to hide

Weather


0- 5 10 15 20 25 30 35+ Temperature / ° C

Clouds and Precipitation
Forecast for 2018-05-21 12:00 UTC. Updated a minute ago

Ground ~20,000 ft ~40,000 ft Winds

OETB

Details ICAO OETB (TUU)
Name TABUK
Region Saudi Arabia
Timezone Asia/Riyadh (UTC+3.0)
Stats Elevation 2,551 ft / 778 m (AMSL)
Location 28.373677° 36.620457°
Runways 2
Magnetic Variation 4.322° E

METAR

OETB 211100Z 26008KT CAVOK 38/02 Q1014 NOSIG

Decode

TAF

Not found

Departure Runways

ID Width Length Bearing (true) Bearing (mag) Surface Threshold Offset Overrun Length
06 148 ft / 45 m 10,984 ft / 3,348 m 64.87° 60.55° Asphalt 0 ft / 0 m 1,140 ft / 347 m
13 148 ft / 45 m 10,151 ft / 3,094 m 133.04° 128.72° Asphalt 0 ft / 0 m 984 ft / 300 m
24 148 ft / 45 m 10,984 ft / 3,348 m 244.89° 240.57° Asphalt 0 ft / 0 m 1,140 ft / 347 m
31 148 ft / 45 m 10,151 ft / 3,094 m 313.05° 308.73° Asphalt 0 ft / 0 m 984 ft / 300 m

LGSA

Details ICAO LGSA (CHQ)
Name Khania Souda
Region Greece
Timezone Europe/Athens (UTC+3.0)
Stats Elevation 490 ft / 149 m (AMSL)
Location 35.531592° 24.151184°
Runways 1
Magnetic Variation 4.323° E

METAR

LGSA 211050Z 09006KT 9999 FEW008 SCT016 26/19 Q1010

Decode

TAF

TAF LGSA 210500Z 2106/2206 10015KT 8000 FEW008 BKN012 BECMG 2110/2112 02010KT FEW018 SCT080

Decode

Destination Runways

ID Width Length Bearing (true) Bearing (mag) Surface Threshold Offset Overrun Length
11 148 ft / 45 m 10,967 ft / 3,343 m 111.40° 107.08° Asphalt 0 ft / 0 m 735 ft / 224 m
29 148 ft / 45 m 10,967 ft / 3,343 m 291.42° 287.10° Asphalt 0 ft / 0 m 900 ft / 274 m

Popular Alternatives